Hourly Data Report for April 19, 2018

KENORA A
ONTARIO
Current Station Operator: NAVCAN

49°47'18.000" N
94°21'47.000" W
409.70 m
6034076
71850
YQK

Download Data

Hourly Data (April 2018)
Hourly Data Report for April 19, 2018
TIME
LST
Temp Definition
°C
Dew Point Definition
°C
Rel Hum Definition
%
Precip. Amount Definition
mm

Wind Dir Definition
10's deg

Wind Spd Definition
km/h
Visibility Definition
km
Stn Press Definition
kPa
Hmdx Definition


Wind Chill Definition


Weather Definition


00:00 2.1 -13.8 30   12 3 24.1 97.68     Clear
01:00 0.9 -9.4 46   10 4 24.1 97.71     LegendNANA
02:00 1.4 -12.6 35   15 4 24.1 97.74     LegendNANA
03:00 2.3 -14.2 29   20 3 24.1 97.79     Clear
04:00 2.3 -14.4 28   22 7 24.1 97.84     LegendNANA
05:00 1.0 -13.4 34   25 7 24.1 97.88     LegendNANA
06:00 1.3 -14.3 30   24 6 24.1 97.93     Mostly Cloudy
07:00 3.3 -13.9 27   23 7 24.1 97.96     LegendNANA
08:00 4.6 -12.5 28   23 9 24.1 97.99     LegendNANA
09:00 6.9 -13.3 22   28 9 24.1 98.00     Mostly Cloudy
10:00 7.5 -12.6 23   23 8 24.1 98.03     LegendNANA
11:00 8.7 -13.2 20   25 10 24.1 98.05     LegendNANA
12:00 10.0 -10.9 22   26 14 32.2 98.03     Mostly Cloudy
13:00 10.1 -12.1 20   20 7 32.2 98.00     LegendNANA
14:00 10.7 -10.6 21   22 13 32.2 97.99     LegendNANA
15:00 10.8 -12.8 18   16 12 32.2 97.94     Mainly Clear
16:00 11.0 -12.7 18   21 14 32.2 97.90     LegendNANA
17:00 11.1 -11.4 20   21 12 32.2 97.89     LegendNANA
18:00 10.6 -12.6 18   20 13 24.1 97.89     Mainly Clear
19:00 8.8 -10.8 24   21 11 24.1 97.90     LegendNANA
20:00 7.0 -11.4 26   21 12 24.1 97.91     LegendNANA
21:00 7.2 -12.8 23   20 11 24.1 97.90     Clear
22:00 7.0 -12.9 23   19 12 24.1 97.88     LegendNANA
23:00 5.8 -12.5 25   20 10 24.1 97.90     LegendNANA

Notes on Data Quality.

Legend

  • E = Estimated
  • M = Missing
  • NA = Not Available*
  • [empty] = Indicates an unobserved value
Date modified: